STARLINK-1115 (44973 NORAD) Tracking and Keplerian Element Data

This shows tracking and keplerian element data for the satellite.

Feedback or suggestion? Click here.




ElementValue
Catalog44973
NameSTARLINK-1115
Epoch Orbit654
Epoch Day48.58334491
Epoch Year2020
RAAN190.4233
Inclination52.9954
Eccentricity0.0001472
Argument of Perigee30.9433
Mean Anonmoly286.0038
Mean Motion15.7321073
Decay Rate0.00062321
L11 44973U 20001BM 20048.58334491 .00062321 00000-0 44486-3 0 9994
L22 44973 52.9954 190.4233 0001472 30.9433 286.0038 15.73210730 6542

Live tracking and technical data element details for STARLINK-1115 (NORAD 44973). STARLINK-1115 can be tracked NOW for your location showing map with azimuth and elevation plus other details from your city location.

Track the satellite on the map from your city or location and see movement details for azimuth, elevation, latitude, longitude, range, height, and movement on the map or in text.







IsCatalogInMostPopularTable: catalog: 44973, numindb: 51
Update: records affected: 1



GetName: 44973 STARLINK-1115

Hit Count: updated at: Tue, 18 Feb 2020 00:11:07 GMT